Simultaneous Nadir Overpasses (SNOs) Predictions

Prediction of SNOs over PacNW region [( 10.00, 139.50) to ( 22.70, 165.60)] between AQUA and NPP Satellites:

Table of predicted SNOs over PacNW region for the next 30.0 days since TLE Epoch: 6/16/2022
Index Date (AQUA) Time (AQUA) AQUA Lat,Lon Date (NPP) Time (NPP) NPP Lat,Lon Distance(km) Time Diff (sec)
1 06/20/2022 16:04:45 22.63, 146.94 06/20/2022 16:07:57 23.47, 143.14 399.45 192
2 06/23/2022 02:47:14 22.66, 159.43 06/23/2022 02:43:45 25.87, 156.14 488.74 209
3 06/28/2022 15:13:43 22.64, 159.73 06/28/2022 15:17:12 23.98, 155.92 416.78 209
4 07/01/2022 03:35:03 22.68, 147.51 07/01/2022 03:33:33 22.05, 144.39 328.29 90
5 07/09/2022 02:43:54 22.66, 160.34 07/09/2022 02:42:54 21.97, 157.07 344.88 60
6 07/11/2022 16:22:24 10.04, 140.64 07/11/2022 16:18:55 8.44, 137.90 349.52 209
